パンスターズ彗星

C/2016 A1 ( PanSTARRS )

English version
Home page
Updated on September 22, 2018

---------------------------------------------------------------------

・ プロフィール

発見日 2016年1月1日
発見光度 19.3等
発見者 Pan-STARRS 1 telescope (Haleakala)

・ 写真集

・ 軌道要素

Epoch 2017 Nov. 23.0 TT = JDT 2458080.5
T 2017 Nov. 23.37069 TT                                 MPCW
q   5.3277742            (2000.0)            P               Q
z  -0.0003743      Peri.   10.32013     -0.53513437     +0.51120858
 +/-0.0000004      Node   128.17453     +0.70123340     -0.17512247
e   1.0019939      Incl.  121.18575     +0.47106573     +0.84142611
From 1482 observations 2016 Jan. 1-2018 Mar. 24, mean residual 0".5.

・ 星図

・ 光度変化

        m1 = 1.2 + 5 logΔ + 15.0 log r

---------------------------------------------------------------------

軌道要素はM.P.E.C. 2018-F152に掲載されたものです。
星図はステラナビゲータ Ver.10 (アストロアーツ) で作成したものです。
光度グラフはComet for Windowsで作成したものです。

---------------------------------------------------------------------

Copyright(C) Seiichi Yoshida (comet@aerith.net). All rights reserved.